Regional Weather Roundup
Issued by NWS

Home | Current Version | Previous Version | Graphics & Text | Print | Product List | Glossary On
Versions: 1 2 3 4 5 6 7 8 9 10 11 12 13 14 15 16 17 18 19 20 21 22 23 24 25 26 27 28 29 30 31 32 33 34 35 36 37 38 39 40 41 42 43 44 45 46 47 48 49 50
000
ASUS43 KDTX 211501
RWRMI
MICHIGAN HOURLY REGIONAL WEATHER ROUNDUP
NATIONAL WEATHER SERVICE DETROIT/PONTIAC MI
1100 AM EDT THU AUG 21 2014

NOTE: "FAIR" INDICATES FEW OR NO CLOUDS BELOW 12,000 FEET WITH NO
SIGNIFICANT WEATHER AND/OR OBSTRUCTION TO VISIBILITY.

MIZ047>049-052>055-059>063-066>070-074>076-081>083-211600-
SOUTHEAST LOWER MICHIGAN

CITY           SKY/WX    TMP DP  RH WIND       PRES   REMARKS
ADRIAN         MOSUNNY   77  69  76 CALM      30.02R
ALMA           MOSUNNY   68  64  85 NE5       30.02S
ANN ARBOR      MOSUNNY   75  64  68 SW3       30.01R
BAD AXE        CLOUDY    69  65  87 CALM      30.01R
CARO           PTSUNNY   69  63  83 CALM      30.02R
DETROIT CITY   MOSUNNY   76  65  68 E3        30.02R
DETROIT        PTSUNNY   76  66  71 S6        30.00R
FLINT          MOSUNNY   76  63  64 VRB6      30.01R
GROSSE ILE     MOSUNNY   75  66  73 SE5       30.00R
HILLSDALE      PTSUNNY   78  71  79 CALM      30.02R
HOWELL         SUNNY     73  64  75 NE5       30.02R

CITY           SKY/WX    TMP DP  RH WIND       PRES   REMARKS
JACKSON        PTSUNNY   75  69  81 VRB5      30.01R
LAMBERTVILLE   PTSUNNY   79  70  73 CALM      30.01R
LANSING        SUNNY     72  64  76 VRB3      30.02R
LAPEER         CLOUDY    68  64  87 CALM      30.02S
MASON          MOSUNNY   73  66  79 CALM      30.01R
MONROE         MOSUNNY   75  68  78 CALM      30.00R
MT. CLEMENS    MOSUNNY   70  64  81 E7        30.01R
PONTIAC        PTSUNNY   74  63  68 N3        30.01R
PORT HOPE        N/A     67  62  84 NE3       30.00R
PORT HURON     PTSUNNY   72  66  83 N3        30.02R
TRI CITIES     CLOUDY    68  62  81 N5        30.03R
TROY           MOSUNNY   74  64  69 CALM      30.03R
SAGINAW HB     CLOUDY    68  66  94 N5        30.01S
$$
MIZ043>046-050>051-056>058-064>065-071>073-077>080-211600-
SOUTHWEST LOWER MICHIGAN

CITY           SKY/WX    TMP DP  RH WIND       PRES   REMARKS
BATTLE CREEK   PTSUNNY   77  68  73 NW6       30.01R
BENTON HARBOR  CLOUDY    74  68  81 SW8       29.99F
BIG RAPIDS     MOSUNNY   69  66  92 CALM      30.00S
COLDWATER      CLOUDY    76  69  77 SW7       30.02R
FREMONT        PTSUNNY   71  62  72 E5        29.99F
HOLLAND        PTSUNNY   77  70  79 W6        29.99F
GRAND RAPIDS   PTSUNNY   75  69  81 E6        30.00S
IONIA          FAIR      69  64  82 E3        30.01S
KALAMAZOO      CLOUDY    78  66  66 W7        30.00R
LUDINGTON      MOSUNNY   72  64  76 E9        29.98F
MARSHALL       PTSUNNY   74  69  82 CALM      30.00S
MOUNT PLEASANT CLOUDY    66  62  85 CALM      30.01S
MUSKEGON       CLOUDY    76  63  64 E7        29.98F
SOUTH HAVEN    CLOUDY    74  70  86 SW3       29.99F
$$
MIZ016>042-211600-
NORTHERN LOWER MICHIGAN

CITY           SKY/WX    TMP DP  RH WIND       PRES   REMARKS
ALPENA         CLOUDY    66  62  87 NW6       30.00S
BEAVER ISLAND  CLOUDY    67  63  86 E7        30.00F
BELLAIRE       CLOUDY    68  62  80 CALM      30.00F
CADILLAC       SUNNY     70  62  77 E5        30.01S
CHARLEVOIX     CLOUDY    66  64  94 N6        30.03F
FRANKFORT      SUNNY     73  61  68 E6        29.99F
GAYLORD        CLOUDY    64  60  87 CALM      30.03R
GRAYLING       CLOUDY    69  63  81 CALM      30.02S
HARBOR SPRINGS CLOUDY    66  62  86 CALM      30.00S
HOUGHTON LAKE  PTSUNNY   69  60  73 VRB6      30.02R
MANISTEE       MOSUNNY   66  61  82 E8        29.99S
OSCODA         CLOUDY    67  63  86 NW3       29.99S
PELLSTON       CLOUDY    68  61  78 NW5       30.01S
ROGERS CITY    CLOUDY    62  62  99 N7        30.01S
TRAVERSE CITY  PTSUNNY   70  60  70 N6        29.99F
$$
MIZ007>008-015-211600-
EASTERN UPPER MICHIGAN

CITY           SKY/WX    TMP DP  RH WIND       PRES   REMARKS
KINROSS        CLOUDY    63  63 100 NW5       30.00F
MACKINAC ISLAN CLOUDY    63  63 100 N3        30.00S
NEWBERRY       MOSUNNY   65  62  87 NW5       30.00S
S. S. MARIE    CLOUDY    64  59  83 NE3       30.00S
$$
MIZ004>006-011>014-085-211600-
CENTRAL UPPER MICHIGAN

CITY           SKY/WX    TMP DP  RH WIND       PRES   REMARKS
MANISTIQUE     CLOUDY    64  62  92 S3        29.99F
ESCANABA       CLOUDY    63  59  88 E5        29.99S
MENOMINEE      PTSUNNY   70  61  73 SE7       29.96S
SAWYER-GWINN   PTSUNNY   63  61  94 E3        30.00S
$$
MIZ001>003-009>011-084-211600-
WESTERN UPPER MICHIGAN

CITY           SKY/WX    TMP DP  RH WIND       PRES   REMARKS
IRON MOUNTAIN  CLOUDY    67  61  81 E5        29.96F
HOUGHTON       CLOUDY    61  59  93 SE6       29.97R FOG
COPPER HARBOR    N/A     59  57  93 VRB3      29.97F
IRONWOOD       PTSUNNY   66  64  94 E7        29.90F
$$

ABBREVIATIONS USED IN REMARKS
   TC - TEMPERATURE IN CELSIUS
  WCI - WIND CHILL INDEX
   HX - HEAT INDEX
  VSB - VISIBILITY



USA.gov is the U.S. government's official web portal to all federal, state and local government web resources and services.